When you browse on this site, cookies collect data to enhance your experience and personalize the content and advertising you see.
Visit our Privacy Policy to learn more. By continuing to use the site, you agree to this use of cookies and data.
EN

Hourly Weather Novoazovsk

Today, 15 July, Wednesday

Time Temperature Precipitation Wind Pressure Humidity
00:00 +16°C° 0 mm 6 mps 757 mmHg 79%
01:00 +16°C° 0 mm 6 mps 757 mmHg 80%
02:00 +16°C° 0 mm 6 mps 757 mmHg 81%
03:00 +15°C° 0 mm 6 mps 757 mmHg 81%
04:00 +15°C° 0 mm 6 mps 758 mmHg 81%
05:00 +15°C° 0 mm 6 mps 758 mmHg 81%
06:00 +15°C° 0 mm 6 mps 758 mmHg 81%
07:00 +17°C° 0 mm 5 mps 759 mmHg 74%
08:00 +20°C° 0 mm 5 mps 759 mmHg 66%
09:00 +21°C° 0 mm 5 mps 759 mmHg 59%
10:00 +23°C° 0 mm 5 mps 759 mmHg 53%
11:00 +25°C° 0 mm 5 mps 759 mmHg 48%
12:00 +26°C° 0 mm 5 mps 759 mmHg 43%
13:00 +26°C° 0 mm 5 mps 759 mmHg 43%
14:00 +27°C° 0 mm 5 mps 759 mmHg 43%
15:00 +27°C° 0 mm 6 mps 759 mmHg 43%
16:00 +26°C° 0 mm 5 mps 759 mmHg 46%
17:00 +26°C° 0 mm 5 mps 759 mmHg 48%
18:00 +25°C° 0 mm 5 mps 759 mmHg 51%
19:00 +23°C° 0 mm 4 mps 759 mmHg 54%
20:00 +22°C° 0 mm 4 mps 759 mmHg 57%
21:00 +21°C° 0 mm 3 mps 760 mmHg 60%
22:00 +20°C° 0 mm 3 mps 760 mmHg 61%
23:00 +20°C° 0 mm 3 mps 760 mmHg 61%

Tomorrow, 16 July, Thursday

Time Temperature Precipitation Wind Pressure Humidity
00:00 +19°C° 0 mm 2 mps 759 mmHg 61%
01:00 +19°C° 0 mm 2 mps 759 mmHg 63%
02:00 +19°C° 0 mm 2 mps 759 mmHg 64%
03:00 +18°C° 0 mm 2 mps 759 mmHg 66%
04:00 +18°C° 0 mm 2 mps 759 mmHg 66%
05:00 +18°C° 0 mm 2 mps 759 mmHg 67%
06:00 +20°C° 0 mm 1 mps 759 mmHg 67%
07:00 +20°C° 0 mm 2 mps 759 mmHg 61%
08:00 +23°C° 0 mm 2 mps 759 mmHg 54%
09:00 +25°C° 0 mm 2 mps 759 mmHg 47%
10:00 +26°C° 0 mm 2 mps 759 mmHg 44%
11:00 +27°C° 0 mm 2 mps 759 mmHg 42%
12:00 +28°C° 0 mm 2 mps 759 mmHg 39%
13:00 +28°C° 0 mm 2 mps 758 mmHg 38%
14:00 +29°C° 0 mm 2 mps 758 mmHg 37%
15:00 +29°C° 0 mm 2 mps 758 mmHg 36%
16:00 +29°C° 0 mm 2 mps 757 mmHg 37%
17:00 +29°C° 0 mm 2 mps 757 mmHg 37%
18:00 +28°C° 0 mm 2 mps 757 mmHg 38%
19:00 +27°C° 0 mm 2 mps 757 mmHg 41%
20:00 +26°C° 0 mm 2 mps 757 mmHg 44%
21:00 +24°C° 0 mm 3 mps 757 mmHg 47%
22:00 +24°C° 0 mm 3 mps 757 mmHg 50%
23:00 +22°C° 0 mm 4 mps 757 mmHg 52%

Day after tomorrow, 17 July, Friday

Time Temperature Precipitation Wind Pressure Humidity
00:00 +21°C° 0 mm 5 mps 757 mmHg 54%
01:00 +21°C° 0 mm 5 mps 757 mmHg 55%
02:00 +20°C° 0 mm 5 mps 756 mmHg 56%
03:00 +20°C° 0 mm 5 mps 756 mmHg 57%
04:00 +20°C° 0 mm 5 mps 756 mmHg 57%
05:00 +20°C° 0 mm 5 mps 756 mmHg 58%
06:00 +20°C° 0 mm 5 mps 756 mmHg 59%
07:00 +22°C° 0 mm 5 mps 757 mmHg 55%
08:00 +23°C° 0 mm 5 mps 757 mmHg 51%
09:00 +26°C° 0 mm 5 mps 757 mmHg 47%
10:00 +27°C° 0 mm 5 mps 757 mmHg 43%
11:00 +29°C° 0 mm 5 mps 757 mmHg 39%
12:00 +30°C° 0 mm 5 mps 756 mmHg 35%
13:00 +30°C° 0.1 mm 5 mps 756 mmHg 37%
14:00 +29°C° 0.1 mm 5 mps 756 mmHg 39%
15:00 +29°C° 0.1 mm 5 mps 756 mmHg 41%
16:00 +29°C° 0 mm 5 mps 756 mmHg 44%
17:00 +28°C° 0 mm 5 mps 756 mmHg 46%
18:00 +27°C° 0 mm 4 mps 757 mmHg 49%
19:00 +27°C° 0 mm 4 mps 757 mmHg 52%
20:00 +26°C° 0 mm 4 mps 757 mmHg 54%
21:00 +25°C° 0 mm 4 mps 757 mmHg 56%
22:00 +25°C° 0 mm 4 mps 758 mmHg 57%
23:00 +23°C° 0 mm 5 mps 758 mmHg 57%

18 July, Saturday

Time Temperature Precipitation Wind Pressure Humidity
00:00 +23°C° 0 mm 5 mps 758 mmHg 58%
01:00 +22°C° 0.1 mm 5 mps 758 mmHg 62%
02:00 +22°C° 0.1 mm 5 mps 758 mmHg 65%
03:00 +21°C° 0.1 mm 6 mps 758 mmHg 69%
04:00 +21°C° 0 mm 5 mps 759 mmHg 71%
05:00 +21°C° 0 mm 5 mps 759 mmHg 73%
06:00 +21°C° 0 mm 5 mps 759 mmHg 75%
07:00 +22°C° 0 mm 4 mps 759 mmHg 68%
08:00 +25°C° 0 mm 4 mps 759 mmHg 61%
09:00 +27°C° 0 mm 4 mps 760 mmHg 55%
10:00 +28°C° 0 mm 4 mps 760 mmHg 52%
11:00 +28°C° 0 mm 4 mps 760 mmHg 49%
12:00 +29°C° 0 mm 4 mps 760 mmHg 46%
13:00 +29°C° 0 mm 4 mps 759 mmHg 45%
14:00 +30°C° 0 mm 4 mps 759 mmHg 44%
15:00 +30°C° 0 mm 4 mps 759 mmHg 43%
16:00 +30°C° 0 mm 4 mps 759 mmHg 42%
17:00 +30°C° 0 mm 4 mps 759 mmHg 42%
18:00 +30°C° 0 mm 4 mps 759 mmHg 41%
19:00 +29°C° 0 mm 4 mps 759 mmHg 45%
20:00 +27°C° 0 mm 4 mps 760 mmHg 49%
21:00 +26°C° 0 mm 4 mps 760 mmHg 54%
22:00 +25°C° 0 mm 4 mps 760 mmHg 56%
23:00 +23°C° 0 mm 4 mps 760 mmHg 58%

19 July, Sunday

Time Temperature Precipitation Wind Pressure Humidity
00:00 +23°C° 0 mm 4 mps 760 mmHg 60%
01:00 +22°C° 0 mm 4 mps 760 mmHg 61%
02:00 +22°C° 0 mm 5 mps 760 mmHg 62%
03:00 +21°C° 0 mm 5 mps 760 mmHg 63%
04:00 +21°C° 0 mm 5 mps 760 mmHg 63%
05:00 +21°C° 0 mm 5 mps 760 mmHg 64%
06:00 +21°C° 0 mm 5 mps 760 mmHg 64%
07:00 +23°C° 0 mm 5 mps 760 mmHg 58%
08:00 +26°C° 0 mm 5 mps 760 mmHg 51%
09:00 +28°C° 0 mm 6 mps 760 mmHg 45%
10:00 +29°C° 0 mm 6 mps 759 mmHg 42%
11:00 +32°C° 0 mm 6 mps 759 mmHg 38%
12:00 +33°C° 0 mm 6 mps 759 mmHg 34%
13:00 +33°C° 0 mm 6 mps 758 mmHg 33%
14:00 +34°C° 0 mm 6 mps 758 mmHg 31%
15:00 +34°C° 0 mm 6 mps 757 mmHg 30%
16:00 +34°C° 0 mm 5 mps 757 mmHg 31%
17:00 +34°C° 0 mm 5 mps 757 mmHg 31%
18:00 +33°C° 0 mm 4 mps 757 mmHg 32%
19:00 +30°C° 0 mm 5 mps 757 mmHg 36%
20:00 +29°C° 0 mm 5 mps 757 mmHg 40%
21:00 +27°C° 0 mm 5 mps 757 mmHg 43%
22:00 +26°C° 0 mm 5 mps 757 mmHg 46%
23:00 +25°C° 0 mm 5 mps 756 mmHg 48%

20 July, Monday

Time Temperature Precipitation Wind Pressure Humidity
00:00 +23°C° 0 mm 5 mps 756 mmHg 50%
01:00 +23°C° 0 mm 5 mps 756 mmHg 52%
02:00 +22°C° 0 mm 5 mps 756 mmHg 54%
03:00 +22°C° 0 mm 5 mps 756 mmHg 55%
04:00 +22°C° 0 mm 5 mps 756 mmHg 57%
05:00 +21°C° 0 mm 5 mps 756 mmHg 58%
06:00 +21°C° 0 mm 5 mps 756 mmHg 60%
07:00 +25°C° 0 mm 5 mps 756 mmHg 54%
08:00 +27°C° 0 mm 5 mps 756 mmHg 48%
09:00 +29°C° 0 mm 5 mps 756 mmHg 42%
10:00 +32°C° 0 mm 4 mps 756 mmHg 38%
11:00 +33°C° 0 mm 4 mps 756 mmHg 35%
12:00 +34°C° 0 mm 4 mps 756 mmHg 31%
13:00 +34°C° 0 mm 4 mps 755 mmHg 30%
14:00 +35°C° 0 mm 3 mps 755 mmHg 29%
15:00 +35°C° 0 mm 3 mps 755 mmHg 28%
16:00 +35°C° 0 mm 3 mps 754 mmHg 28%
17:00 +35°C° 0 mm 3 mps 754 mmHg 28%
18:00 +35°C° 0 mm 2 mps 754 mmHg 28%
19:00 +33°C° 0 mm 3 mps 754 mmHg 33%
20:00 +30°C° 0 mm 4 mps 754 mmHg 38%
21:00 +28°C° 0 mm 4 mps 753 mmHg 43%
22:00 +27°C° 0 mm 5 mps 753 mmHg 45%
23:00 +26°C° 0 mm 5 mps 753 mmHg 47%
Show more